When you browse on this site, cookies collect data to enhance your experience and personalize the content and advertising you see.
Visit our Privacy Policy to learn more. By continuing to use the site, you agree to this use of cookies and data.
  • In Romania
  • List of Countries
  • For 7 days
  • Water Temperature
  • Satellite Maps
  • Weather Map
  • Weather Widgets
  • user-avatar
    Login

    Hourly Weather Salgotarjan

    Today, 23 January, Wednesday

    Time Temperature Precipitation Wind Pressure Humidity
    00:00 -6°C° 0 mm 1 mps 724 mmHg 84%
    01:00 -6°C° 0 mm 1 mps 723 mmHg 84%
    02:00 -6°C° 0 mm 1 mps 723 mmHg 83%
    03:00 -6°C° 0 mm 1 mps 722 mmHg 82%
    04:00 -6°C° 0 mm 1 mps 722 mmHg 81%
    05:00 -6°C° 0 mm 1 mps 721 mmHg 81%
    06:00 -6°C° 0 mm 1 mps 721 mmHg 80%
    07:00 -6°C° 0 mm 1 mps 721 mmHg 80%
    08:00 -4°C° 0.2 mm 1 mps 721 mmHg 79%
    09:00 -4°C° 0.2 mm 1 mps 721 mmHg 78%
    10:00 -3°C° 0.2 mm 1 mps 721 mmHg 76%
    11:00 -3°C° 0.2 mm 1 mps 721 mmHg 78%
    12:00 -2°C° 0.2 mm 1 mps 720 mmHg 80%
    13:00 -2°C° 0.2 mm 1 mps 720 mmHg 82%
    14:00 -2°C° 0.1 mm 1 mps 720 mmHg 83%
    15:00 -2°C° 0.1 mm 1 mps 720 mmHg 85%
    16:00 -2°C° 0.1 mm 1 mps 720 mmHg 86%
    17:00 -2°C° 0 mm 1 mps 720 mmHg 87%
    18:00 -2°C° 0 mm 1 mps 720 mmHg 88%
    19:00 -2°C° 0 mm 1 mps 720 mmHg 90%
    20:00 -2°C° 0 mm 1 mps 720 mmHg 89%
    21:00 -2°C° 0 mm 1 mps 720 mmHg 88%
    22:00 -2°C° 0 mm 1 mps 720 mmHg 87%
    23:00 -3°C° 0 mm 1 mps 720 mmHg 87%

    Tomorrow, 24 January, Thursday

    Time Temperature Precipitation Wind Pressure Humidity
    00:00 -3°C° 0 mm 1 mps 720 mmHg 87%
    01:00 -3°C° 0 mm 1 mps 720 mmHg 87%
    02:00 -3°C° 0 mm 1 mps 720 mmHg 86%
    03:00 -4°C° 0 mm 1 mps 720 mmHg 86%
    04:00 -4°C° 0 mm 1 mps 720 mmHg 86%
    05:00 -4°C° 0 mm 1 mps 720 mmHg 84%
    06:00 -4°C° 0 mm 1 mps 720 mmHg 83%
    07:00 -4°C° 0 mm 1 mps 720 mmHg 81%
    08:00 -3°C° 0 mm 1 mps 720 mmHg 77%
    09:00 -4°C° 0 mm 2 mps 720 mmHg 73%
    10:00 -3°C° 0 mm 2 mps 720 mmHg 68%
    11:00 -2°C° 0 mm 2 mps 720 mmHg 67%
    12:00 -1°C° 0 mm 2 mps 720 mmHg 65%
    13:00 +1°C° 0 mm 2 mps 719 mmHg 63%
    14:00 +1°C° 0 mm 2 mps 719 mmHg 66%
    15:00 +1°C° 0 mm 1 mps 719 mmHg 69%
    16:00 +1°C° 0 mm 1 mps 719 mmHg 73%
    17:00 0°C° 0 mm 1 mps 720 mmHg 74%
    18:00 -2°C° 0 mm 2 mps 720 mmHg 75%
    19:00 -3°C° 0 mm 2 mps 720 mmHg 77%
    20:00 -3°C° 0 mm 2 mps 720 mmHg 76%
    21:00 -3°C° 0 mm 2 mps 720 mmHg 75%
    22:00 -1°C° 0 mm 1 mps 720 mmHg 74%
    23:00 -1°C° 0 mm 1 mps 720 mmHg 76%

    Day after tomorrow, 25 January, Friday

    Time Temperature Precipitation Wind Pressure Humidity
    00:00 -1°C° 0 mm 1 mps 720 mmHg 77%
    01:00 -1°C° 0 mm 1 mps 720 mmHg 78%
    02:00 -1°C° 0.1 mm 1 mps 720 mmHg 80%
    03:00 -1°C° 0.1 mm 1 mps 720 mmHg 81%
    04:00 -1°C° 0.1 mm 1 mps 720 mmHg 83%
    05:00 -1°C° 0.4 mm 1 mps 720 mmHg 85%
    06:00 -2°C° 0.4 mm 1 mps 720 mmHg 88%
    07:00 -2°C° 0.4 mm 1 mps 720 mmHg 90%
    08:00 -1°C° 0.1 mm 1 mps 721 mmHg 86%
    09:00 -1°C° 0.1 mm 1 mps 721 mmHg 83%
    10:00 0°C° 0.1 mm 1 mps 721 mmHg 79%
    11:00 -2°C° 0.1 mm 2 mps 721 mmHg 80%
    12:00 -2°C° 0.1 mm 2 mps 721 mmHg 81%
    13:00 -2°C° 0.1 mm 2 mps 722 mmHg 82%
    14:00 -2°C° 0 mm 2 mps 722 mmHg 81%
    15:00 -2°C° 0 mm 2 mps 722 mmHg 81%
    16:00 0°C° 0 mm 1 mps 722 mmHg 81%
    17:00 0°C° 0 mm 1 mps 722 mmHg 82%
    18:00 0°C° 0 mm 1 mps 722 mmHg 82%
    19:00 0°C° 0 mm 1 mps 723 mmHg 83%
    20:00 0°C° 0.1 mm 1 mps 723 mmHg 83%
    21:00 -2°C° 0.1 mm 2 mps 723 mmHg 83%
    22:00 -3°C° 0.1 mm 2 mps 723 mmHg 83%
    23:00 -3°C° 0.1 mm 2 mps 724 mmHg 82%

    26 January, Saturday

    Time Temperature Precipitation Wind Pressure Humidity
    00:00 -3°C° 0.1 mm 2 mps 724 mmHg 82%
    01:00 -3°C° 0.1 mm 2 mps 724 mmHg 82%
    02:00 -3°C° 0 mm 2 mps 724 mmHg 81%
    03:00 -3°C° 0 mm 2 mps 724 mmHg 81%
    04:00 -3°C° 0 mm 2 mps 724 mmHg 80%
    05:00 -4°C° 0 mm 2 mps 724 mmHg 79%
    06:00 -4°C° 0 mm 2 mps 724 mmHg 78%
    07:00 -4°C° 0 mm 2 mps 724 mmHg 77%
    08:00 -3°C° 0 mm 2 mps 724 mmHg 75%
    09:00 -3°C° 0 mm 2 mps 725 mmHg 72%
    10:00 -2°C° 0 mm 2 mps 725 mmHg 69%
    11:00 -1°C° 0 mm 2 mps 724 mmHg 68%
    12:00 -1°C° 0 mm 2 mps 724 mmHg 66%
    13:00 +1°C° 0 mm 2 mps 724 mmHg 65%
    14:00 +2°C° 0 mm 1 mps 724 mmHg 69%
    15:00 +1°C° 0 mm 1 mps 723 mmHg 72%
    16:00 0°C° 0 mm 1 mps 723 mmHg 76%
    17:00 0°C° 0 mm 1 mps 723 mmHg 79%
    18:00 -1°C° 0 mm 1 mps 723 mmHg 81%
    19:00 -1°C° 0 mm 1 mps 723 mmHg 84%
    20:00 -3°C° 0 mm 0 mps 723 mmHg 84%
    21:00 -3°C° 0 mm 0 mps 723 mmHg 85%
    22:00 -3°C° 0 mm 0 mps 723 mmHg 86%
    23:00 -3°C° 0 mm 0 mps 722 mmHg 86%

    27 January, Sunday

    Time Temperature Precipitation Wind Pressure Humidity
    00:00 -3°C° 0 mm 0 mps 722 mmHg 86%
    01:00 -3°C° 0 mm 0 mps 722 mmHg 86%
    02:00 -3°C° 0 mm 0 mps 722 mmHg 87%
    03:00 -3°C° 0 mm 0 mps 721 mmHg 87%
    04:00 -3°C° 0 mm 0 mps 721 mmHg 88%
    05:00 -3°C° 0 mm 0 mps 721 mmHg 88%
    06:00 -3°C° 0 mm 0 mps 721 mmHg 89%
    07:00 -3°C° 0 mm 0 mps 721 mmHg 89%
    08:00 -2°C° 0 mm 0 mps 721 mmHg 87%
    09:00 -2°C° 0 mm 0 mps 722 mmHg 85%
    10:00 -1°C° 0 mm 0 mps 722 mmHg 82%
    11:00 -1°C° 0 mm 0 mps 722 mmHg 82%
    12:00 0°C° 0 mm 0 mps 722 mmHg 81%
    13:00 0°C° 0 mm 0 mps 722 mmHg 80%
    14:00 0°C° 0 mm 0 mps 722 mmHg 82%
    15:00 -1°C° 0 mm 0 mps 722 mmHg 84%
    16:00 -1°C° 0 mm 0 mps 722 mmHg 86%
    17:00 -1°C° 0 mm 0 mps 722 mmHg 88%
    18:00 -2°C° 0 mm 0 mps 722 mmHg 91%
    19:00 -2°C° 0 mm 0 mps 722 mmHg 93%
    20:00 -2°C° 0 mm 0 mps 722 mmHg 93%
    21:00 -2°C° 0 mm 0 mps 723 mmHg 93%
    22:00 -2°C° 0 mm 0 mps 723 mmHg 92%
    23:00 -2°C° 0 mm 0 mps 723 mmHg 93%

    28 January, Monday

    Time Temperature Precipitation Wind Pressure Humidity
    00:00 -1°C° 0 mm 1 mps 723 mmHg 93%
    01:00 -1°C° 0 mm 1 mps 723 mmHg 94%
    02:00 -1°C° 0 mm 1 mps 723 mmHg 94%
    03:00 -2°C° 0 mm 0 mps 723 mmHg 94%
    04:00 -2°C° 0 mm 0 mps 723 mmHg 94%
    05:00 -1°C° 0 mm 1 mps 723 mmHg 94%
    06:00 -2°C° 0 mm 1 mps 724 mmHg 94%
    07:00 -2°C° 0 mm 1 mps 724 mmHg 95%
    08:00 -1°C° 0 mm 1 mps 724 mmHg 91%
    09:00 0°C° 0 mm 1 mps 725 mmHg 88%
    10:00 +1°C° 0 mm 1 mps 725 mmHg 84%
    11:00 +2°C° 0 mm 1 mps 725 mmHg 83%
    12:00 +1°C° 0 mm 2 mps 725 mmHg 81%
    13:00 +2°C° 0 mm 2 mps 725 mmHg 80%
    14:00 +1°C° 0 mm 2 mps 725 mmHg 83%
    15:00 +1°C° 0 mm 2 mps 725 mmHg 86%
    16:00 -1°C° 0 mm 2 mps 725 mmHg 89%
    17:00 -1°C° 0 mm 2 mps 726 mmHg 90%
    18:00 0°C° 0 mm 1 mps 726 mmHg 92%
    19:00 0°C° 0 mm 1 mps 727 mmHg 93%
    20:00 0°C° 0 mm 1 mps 727 mmHg 93%
    21:00 0°C° 0 mm 1 mps 727 mmHg 93%
    22:00 0°C° 0 mm 1 mps 728 mmHg 93%
    23:00 0°C° 0 mm 1 mps 728 mmHg 92%
    Show more